Simultaneous Nadir Overpasses (SNOs) Predictions

Prediction of SNOs between METOP-A and NOAA-19 Satellite Orbit:

Table of predicted SNOs for the next 14.0 days since TLE Epoch: 2/22/2017
Index Date (METOP-A) Time (METOP-A) Lat,Lon (METOP-A) SZA (METOP-A ) Date (NOAA-19) Time (NOAA-19) Lat,Lon (NOAA-19) SZA (NOAA-19 ) Distance(km) Time Diff (sec)
1 03/04/2017 01:41:15 76.96, 158.10 83.31 03/04/2017 01:40:09 76.94, 158.18 83.28 3.12 66
2 03/04/2017 02:31:57 -76.94, -34.67 96.74 03/04/2017 02:31:05 -76.94, -34.55 96.74 3.02 52
3 03/04/2017 03:22:37 76.94, 132.68 83.26 03/04/2017 03:22:11 76.95, 132.62 83.27 1.80 26
4 03/04/2017 04:13:19 -76.92, -60.09 96.78 03/04/2017 04:13:07 -76.95, -60.11 96.75 3.69 12
5 03/04/2017 05:03:59 76.92, 107.26 83.21 03/04/2017 05:04:12 76.92, 107.25 83.21 0.23 13
6
